START_TIME,STEP,MOV.,H8,t_acc.,H43,t_acc.,M25,t_acc.,H9,t_acc.
1980-11-14 00:00:18.060 ,3,0,0.,12.0,0.,12.0,0.,12.0,0.,12.0
1980-11-14 00:00:30.060 ,3,0,0.,12.0,0.,12.0,0.,12.0,0.,12.0
1980-11-14 00:00:42.060 ,4,0,0.,12.0,0.,12.0,0.,12.0,0.,12.0
1980-11-14 00:00:54.060 ,4,0,0.,12.0,0.,12.0,0.,12.0,0.,12.0
1980-11-14 00:01:06.060 ,4,0,0.,12.0,0.,12.0,0.,12.0,0.,12.0
1980-11-14 00:01:18.060 ,4,0,0.,12.0,0.,12.0,0.,12.0,0.,12.0
1980-11-14 00:01:30.060 ,5,0,0.,12.0,0.,12.0,0.,12.0,0.,12.0
1980-11-14 00:01:42.060 ,5,0,0.,12.0,0.,12.0,0.,12.0,0.,12.0
1980-11-14 00:01:54.060 ,5,0,0.,12.0,0.,12.0,0.,12.0,0.,12.0
1980-11-14 00:02:06.060 ,5,0,0.,12.0,0.,12.0,0.,12.0,0.,12.0
1980-11-14 00:02:18.060 ,6,0,0.,12.0,0.,12.0,0.,12.0,0.,12.0
1980-11-14 00:02:30.060 ,6,0,0.,12.0,0.,12.0,0.,12.0,0.,12.0
1980-11-14 00:02:42.060 ,6,0,0.,12.0,0.,12.0,0.,12.0,0.,12.0
1980-11-14 00:02:54.060 ,6,0,0.,12.0,0.,12.0,0.,12.0,0.,12.0
1980-11-14 00:03:06.060 ,7,0,0.,12.0,0.,12.0,0.,12.0,0.,12.0
1980-11-14 00:03:18.060 ,7,0,0.,12.0,0.,12.0,0.,12.0,0.,12.0
1980-11-14 00:03:30.060 ,7,0,0.,12.0,0.,12.0,0.,12.0,0.,12.0
1980-11-14 00:03:42.060 ,7,0,0.,12.0,0.,12.0,0.,12.0,0.,12.0
1980-11-14 00:03:54.060 ,7,0,0.,12.0,0.,12.0,0.,12.0,0.,12.0
1980-11-14 00:04:06.060 ,7,0,0.,12.0,0.,12.0,0.,12.0,0.,12.0
1980-11-14 00:04:18.060 ,7,0,0.,12.0,0.,12.0,0.,12.0,0.,12.0
1980-11-14 00:04:30.060 ,7,0,0.,12.0,0.,12.0,0.,12.0,0.,12.0
1980-11-14 00:04:42.060 ,6,0,0.,12.0,0.,12.0,0.,12.0,0.,12.0
1980-11-14 00:04:54.060 ,6,0,0.,12.0,0.,12.0,0.,12.0,0.,12.0
1980-11-14 00:05:06.060 ,6,0,0.,12.0,0.,12.0,0.,12.0,0.,12.0
1980-11-14 00:05:18.060 ,6,0,0.,12.0,0.,12.0,0.,12.0,0.,12.0
1980-11-14 00:05:30.060 ,5,0,0.,12.0,0.,12.0,0.,12.0,0.,12.0
1980-11-14 00:05:42.060 ,5,0,0.,12.0,0.,12.0,0.,12.0,0.,12.0
1980-11-14 00:05:54.060 ,5,0,0.,12.0,0.,12.0,0.,12.0,0.,12.0
1980-11-14 00:06:06.060 ,5,0,0.,12.0,0.,12.0,0.,12.0,0.,12.0
1980-11-14 00:06:18.060 ,4,0,0.,12.0,0.,12.0,0.,12.0,0.,12.0
1980-11-14 00:06:30.060 ,4,0,0.,12.0,0.,12.0,0.,12.0,0.,12.0
1980-11-14 00:06:42.060 ,4,0,0.,12.0,0.,12.0,0.,12.0,0.,12.0
1980-11-14 00:06:54.060 ,4,0,0.,12.0,0.,12.0,0.,12.0,0.,12.0
1980-11-14 00:07:06.060 ,3,0,0.,12.0,0.,12.0,0.,12.0,0.,12.0
1980-11-14 00:07:18.060 ,3,0,0.,12.0,0.,12.0,0.,12.0,0.,12.0
1980-11-14 00:07:30.060 ,3,0,0.,12.0,0.,12.0,0.,12.0,0.,12.0
1980-11-14 00:07:42.060 ,3,0,0.,12.0,0.,12.0,0.,12.0,0.,12.0
1980-11-14 00:07:54.060 ,2,0,0.,12.0,0.,12.0,0.,12.0,0.,12.0
1980-11-14 00:08:06.060 ,2,0,0.,12.0,0.,12.0,0.,12.0,0.,12.0
1980-11-14 00:08:18.060 ,2,0,0.,12.0,0.,12.0,0.,12.0,0.,12.0
1980-11-14 00:08:30.060 ,2,0,0.,12.0,0.,12.0,0.,12.0,0.,12.0
1980-11-14 00:08:42.060 ,1,0,0.,12.0,0.,12.0,0.,12.0,0.,12.0
1980-11-14 00:08:54.060 ,1,0,0.,12.0,0.,12.0,0.,12.0,0.,12.0
1980-11-14 00:09:06.060 ,1,0,0.,12.0,0.,12.0,0.,12.0,0.,12.0
1980-11-14 00:09:18.060 ,1,0,0.,12.0,0.,12.0,0.,12.0,0.,12.0
1980-11-14 00:09:30.060 ,0,0,0.,12.0,0.,12.0,0.,12.0,0.,12.0
1980-11-14 00:09:42.060 ,0,0,0.,12.0,0.,12.0,0.,12.0,0.,12.0
1980-11-14 00:09:54.060 ,0,0,0.,12.0,0.,12.0,0.,12.0,0.,12.0
1980-11-14 00:10:06.060 ,0,0,0.,12.0,0.,12.0,0.,12.0,0.,12.0
1980-11-14 00:10:18.060 ,0,0,0.,12.0,0.,12.0,0.,12.0,0.,12.0
1980-11-14 00:10:30.060 ,0,0,0.,12.0,0.,12.0,0.,12.0,0.,12.0
1980-11-14 00:10:42.060 ,0,0,0.,12.0,0.,12.0,0.,12.0,0.,12.0
1980-11-14 00:10:54.060 ,0,0,0.,12.0,0.,12.0,0.,12.0,0.,12.0
1980-11-14 00:11:06.060 ,1,0,0.,12.0,0.,12.0,0.,12.0,0.,12.0
1980-11-14 00:11:18.060 ,1,0,0.,12.0,0.,12.0,0.,12.0,0.,12.0
1980-11-14 00:11:30.060 ,1,0,0.,12.0,0.,12.0,0.,12.0,0.,12.0
1980-11-14 00:11:42.060 ,1,0,0.,12.0,0.,12.0,0.,12.0,0.,12.0
1980-11-14 00:11:54.060 ,2,0,0.,12.0,0.,12.0,0.,12.0,0.,12.0
1980-11-14 00:12:06.060 ,2,0,0.,12.0,0.,12.0,0.,12.0,0.,12.0
1980-11-14 00:12:18.060 ,2,0,0.,12.0,0.,12.0,0.,12.0,0.,12.0
1980-11-14 00:12:30.060 ,2,0,0.,12.0,0.,12.0,0.,12.0,0.,12.0
1980-11-14 00:12:42.060 ,3,0,0.,12.0,0.,12.0,0.,12.0,0.,12.0
1980-11-14 00:12:54.060 ,3,0,0.,12.0,0.,12.0,0.,12.0,0.,12.0
1980-11-14 00:13:06.060 ,3,0,0.,12.0,0.,12.0,0.,12.0,0.,12.0
1980-11-14 00:13:18.060 ,3,0,0.,12.0,0.,12.0,0.,12.0,0.,12.0
1980-11-14 00:13:30.060 ,4,0,0.,12.0,0.,12.0,0.,12.0,0.,12.0
1980-11-14 00:13:42.060 ,4,0,0.,12.0,0.,12.0,0.,12.0,0.,12.0
1980-11-14 00:13:54.060 ,4,0,0.,12.0,0.,12.0,0.,12.0,0.,12.0
1980-11-14 00:14:06.060 ,4,0,0.,12.0,0.,12.0,0.,12.0,0.,12.0
1980-11-14 00:14:18.060 ,5,0,0.,12.0,0.,12.0,0.,12.0,0.,12.0
1980-11-14 00:14:30.060 ,5,0,0.,12.0,0.,12.0,0.,12.0,0.,12.0
1980-11-14 00:14:42.060 ,5,0,0.,12.0,0.,12.0,0.,12.0,0.,12.0
1980-11-14 00:14:54.060 ,5,0,0.,12.0,0.,12.0,0.,12.0,0.,12.0
1980-11-14 00:15:06.060 ,6,0,0.,12.0,0.,12.0,0.,12.0,0.,12.0
1980-11-14 00:15:18.060 ,6,0,0.,12.0,0.,12.0,0.,12.0,0.,12.0
1980-11-14 00:15:30.060 ,6,0,0.,12.0,0.,12.0,0.,12.0,0.,12.0
1980-11-14 00:15:42.060 ,6,0,0.,12.0,0.,12.0,0.,12.0,0.,12.0
1980-11-14 00:15:54.060 ,7,0,0.,12.0,0.,12.0,0.,12.0,0.,12.0
1980-11-14 00:16:06.060 ,7,0,0.,12.0,0.,12.0,0.,12.0,0.,12.0
1980-11-14 00:16:18.060 ,7,0,0.,12.0,0.,12.0,0.,12.0,0.,12.0
1980-11-14 00:16:30.060 ,7,0,0.,12.0,0.,12.0,0.,12.0,0.,12.0
1980-11-14 00:16:42.060 ,7,0,0.,12.0,0.,12.0,0.,12.0,0.,12.0
1980-11-14 00:16:54.060 ,7,0,0.,12.0,0.,12.0,0.,12.0,0.,12.0
1980-11-14 00:17:06.060 ,7,0,0.,12.0,0.,12.0,0.,12.0,0.,12.0
1980-11-14 00:17:18.060 ,7,0,0.,12.0,0.,12.0,0.,12.0,0.,12.0
1980-11-14 00:17:30.060 ,6,0,0.,12.0,0.,12.0,0.,12.0,0.,12.0
1980-11-14 00:17:42.060 ,6,0,0.,12.0,0.,12.0,0.,12.0,0.,12.0
1980-11-14 00:17:54.060 ,6,0,0.,12.0,0.,12.0,0.,12.0,0.,12.0
1980-11-14 00:18:06.060 ,6,0,0.,12.0,0.,12.0,0.,12.0,0.,12.0
1980-11-14 00:18:18.060 ,5,0,0.,12.0,0.,12.0,0.,12.0,0.,12.0
1980-11-14 00:18:30.060 ,5,0,0.,12.0,0.,12.0,0.,12.0,0.,12.0
1980-11-14 00:18:42.060 ,5,0,0.,12.0,0.,12.0,0.,12.0,0.,12.0
1980-11-14 00:18:54.060 ,5,0,0.,12.0,0.,12.0,0.,12.0,0.,12.0
1980-11-14 00:19:06.060 ,4,0,0.,12.0,0.,12.0,0.,12.0,0.,12.0
1980-11-14 00:19:18.060 ,4,0,0.,12.0,0.,12.0,0.,12.0,0.,12.0
1980-11-14 00:19:30.060 ,4,0,0.,12.0,0.,12.0,0.,12.0,0.,12.0
1980-11-14 00:19:42.060 ,4,0,0.,12.0,0.,12.0,0.,12.0,0.,12.0
1980-11-14 00:19:54.060 ,3,0,0.,12.0,0.,12.0,0.,12.0,0.,12.0
1980-11-14 00:20:06.060 ,3,0,0.,12.0,0.,12.0,0.,12.0,0.,12.0
1980-11-14 00:20:18.060 ,3,0,0.,12.0,0.,12.0,0.,12.0,0.,12.0
1980-11-14 00:20:30.060 ,3,0,0.,12.0,0.,12.0,0.,12.0,0.,12.0
1980-11-14 00:20:42.060 ,2,0,0.,12.0,0.,12.0,0.,12.0,0.,12.0
1980-11-14 00:20:54.060 ,2,0,0.,12.0,0.,12.0,0.,12.0,0.,12.0
1980-11-14 00:21:06.060 ,2,0,0.,12.0,0.,12.0,0.,12.0,0.,12.0
1980-11-14 00:21:18.060 ,2,0,0.,12.0,0.,12.0,0.,12.0,0.,12.0
1980-11-14 00:21:30.060 ,1,0,0.,12.0,0.,12.0,0.,12.0,0.,12.0
1980-11-14 00:21:42.060 ,1,0,0.,12.0,0.,12.0,0.,12.0,0.,12.0
1980-11-14 00:21:54.060 ,1,0,0.,12.0,0.,12.0,0.,12.0,0.,12.0
1980-11-14 00:22:06.060 ,1,0,0.,12.0,0.,12.0,0.,12.0,0.,12.0
1980-11-14 00:22:18.060 ,0,0,0.,12.0,0.,12.0,0.,12.0,0.,12.0
1980-11-14 00:22:30.060 ,0,0,0.,12.0,0.,12.0,0.,12.0,0.,12.0
1980-11-14 00:22:42.060 ,0,0,0.,12.0,0.,12.0,0.,12.0,0.,12.0
1980-11-14 00:22:54.060 ,0,0,0.,12.0,0.,12.0,0.,12.0,0.,12.0
1980-11-14 00:23:06.060 ,0,0,0.,12.0,0.,12.0,0.,12.0,0.,12.0
1980-11-14 00:23:18.060 ,0,0,0.,12.0,0.,12.0,0.,12.0,0.,12.0
1980-11-14 00:23:30.060 ,0,0,0.,12.0,0.,12.0,0.,12.0,0.,12.0
1980-11-14 00:23:42.060 ,0,0,0.,12.0,0.,12.0,0.,12.0,0.,12.0
1980-11-14 00:23:54.060 ,1,0,0.,12.0,0.,12.0,0.,12.0,0.,12.0
1980-11-14 00:24:06.060 ,1,0,0.,12.0,0.,12.0,0.,12.0,0.,12.0
1980-11-14 00:24:18.060 ,1,0,0.,12.0,0.,12.0,0.,12.0,0.,12.0
1980-11-14 00:24:30.060 ,1,0,0.,12.0,0.,12.0,0.,12.0,0.,12.0
1980-11-14 00:24:42.060 ,2,0,0.,12.0,0.,12.0,0.,12.0,0.,12.0
1980-11-14 00:24:54.060 ,2,0,0.,12.0,0.,12.0,0.,12.0,0.,12.0
1980-11-14 00:25:06.060 ,2,0,0.,12.0,0.,12.0,0.,12.0,0.,12.0
1980-11-14 00:25:18.060 ,2,0,0.,12.0,0.,12.0,0.,12.0,0.,12.0
1980-11-14 00:25:30.060 ,3,0,0.,12.0,0.,12.0,0.,12.0,0.,12.0
1980-11-14 00:25:42.060 ,3,0,0.,12.0,0.,12.0,0.,12.0,0.,12.0
1980-11-14 00:25:54.060 ,3,0,0.,12.0,0.,12.0,0.,12.0,0.,12.0
1980-11-14 00:26:06.060 ,3,0,0.,12.0,0.,12.0,0.,12.0,0.,12.0
1980-11-14 00:26:18.060 ,4,0,0.,12.0,0.,12.0,0.,12.0,0.,12.0
1980-11-14 00:26:30.060 ,4,0,0.,12.0,0.,12.0,0.,12.0,0.,12.0
1980-11-14 00:26:42.060 ,4,0,0.,12.0,0.,12.0,0.,12.0,0.,12.0
1980-11-14 00:26:54.060 ,4,0,0.,12.0,0.,12.0,0.,12.0,0.,12.0
1980-11-14 00:27:06.060 ,5,0,0.,12.0,0.,12.0,0.,12.0,0.,12.0
1980-11-14 00:27:18.060 ,5,0,0.,12.0,0.,12.0,0.,12.0,0.,12.0
1980-11-14 00:27:30.060 ,5,0,0.,12.0,0.,12.0,0.,12.0,0.,12.0
1980-11-14 00:27:42.060 ,5,0,0.,12.0,0.,12.0,0.,12.0,0.,12.0
1980-11-14 00:27:54.060 ,6,0,0.,12.0,0.,12.0,0.,12.0,0.,12.0
1980-11-14 00:28:06.060 ,6,0,0.,12.0,0.,12.0,0.,12.0,0.,12.0
1980-11-14 00:28:18.060 ,6,0,0.,12.0,0.,12.0,0.,12.0,0.,12.0
1980-11-14 00:28:30.060 ,6,0,0.,12.0,0.,12.0,0.,12.0,0.,12.0
1980-11-14 00:28:42.060 ,7,0,0.,12.0,0.,12.0,0.,12.0,0.,12.0
1980-11-14 00:28:54.060 ,7,0,0.,12.0,0.,12.0,0.,12.0,0.,12.0
1980-11-14 00:29:06.060 ,7,0,0.,12.0,0.,12.0,0.,12.0,0.,12.0
1980-11-14 00:29:18.060 ,7,0,0.,12.0,0.,12.0,0.,12.0,0.,12.0
1980-11-14 00:29:30.060 ,7,0,0.,12.0,0.,12.0,0.,12.0,0.,12.0
1980-11-14 00:29:42.060 ,7,0,0.,12.0,0.,12.0,0.,12.0,0.,12.0
1980-11-14 00:29:54.060 ,7,0,0.,12.0,0.,12.0,0.,12.0,0.,12.0
1980-11-14 00:30:06.060 ,7,0,0.,12.0,0.,12.0,0.,12.0,0.,12.0
1980-11-14 00:30:18.060 ,6,0,0.,12.0,0.,12.0,0.,12.0,0.,12.0
1980-11-14 00:30:30.060 ,6,0,0.,12.0,0.,12.0,0.,12.0,0.,12.0
1980-11-14 00:30:42.060 ,6,0,0.,12.0,0.,12.0,0.,12.0,0.,12.0
1980-11-14 00:30:54.060 ,6,0,0.,12.0,0.,12.0,0.,12.0,0.,12.0
1980-11-14 00:31:06.060 ,5,0,0.,12.0,0.,12.0,0.,12.0,0.,12.0
1980-11-14 00:31:18.060 ,5,0,0.,12.0,0.,12.0,0.,12.0,0.,12.0
1980-11-14 00:31:30.060 ,5,0,0.,12.0,0.,12.0,0.,12.0,0.,12.0
1980-11-14 00:31:42.060 ,5,0,0.,12.0,0.,12.0,0.,12.0,0.,12.0
1980-11-14 00:31:54.060 ,4,0,0.,12.0,0.,12.0,0.,12.0,0.,12.0
1980-11-14 00:32:06.060 ,4,0,0.,12.0,0.,12.0,0.,12.0,0.,12.0
1980-11-14 00:32:18.060 ,4,0,0.,12.0,0.,12.0,0.,12.0,0.,12.0
1980-11-14 00:32:30.060 ,4,0,0.,12.0,0.,12.0,0.,12.0,0.,12.0
1980-11-14 00:32:42.060 ,3,0,0.,12.0,0.,12.0,0.,12.0,0.,12.0
1980-11-14 00:32:54.060 ,3,0,0.,12.0,0.,12.0,0.,12.0,0.,12.0
1980-11-14 00:33:06.060 ,3,0,0.,12.0,0.,12.0,0.,12.0,0.,12.0
1980-11-14 00:33:18.060 ,3,0,0.,12.0,0.,12.0,0.,12.0,0.,12.0
1980-11-14 00:33:30.060 ,2,0,0.,12.0,0.,12.0,0.,12.0,0.,12.0
1980-11-14 00:33:42.060 ,2,0,0.,12.0,0.,12.0,0.,12.0,0.,12.0
1980-11-14 00:33:54.060 ,2,0,0.,12.0,0.,12.0,0.,12.0,0.,12.0
1980-11-14 00:34:06.060 ,2,0,0.,12.0,0.,12.0,0.,12.0,0.,12.0
1980-11-14 00:34:18.060 ,1,0,0.,12.0,0.,12.0,0.,12.0,0.,12.0
1980-11-14 00:34:30.060 ,1,0,0.,12.0,0.,12.0,0.,12.0,0.,12.0
1980-11-14 00:34:42.060 ,1,0,0.,12.0,0.,12.0,0.,12.0,0.,12.0
1980-11-14 00:34:54.060 ,1,0,0.,12.0,0.,12.0,0.,12.0,0.,12.0
1980-11-14 00:35:06.060 ,0,0,0.,12.0,0.,12.0,0.,12.0,0.,12.0
1980-11-14 00:35:18.060 ,0,0,0.,12.0,0.,12.0,0.,12.0,0.,12.0
1980-11-14 00:35:30.060 ,0,0,0.,12.0,0.,12.0,0.,12.0,0.,12.0
1980-11-14 00:35:42.060 ,0,0,0.,12.0,0.,12.0,0.,12.0,0.,12.0
1980-11-14 00:35:54.060 ,0,0,0.,12.0,0.,12.0,0.,12.0,0.,12.0
1980-11-14 00:36:06.060 ,0,0,0.,12.0,0.,12.0,0.,12.0,0.,12.0
1980-11-14 00:36:18.060 ,0,0,0.,12.0,0.,12.0,0.,12.0,0.,12.0
1980-11-14 00:36:30.060 ,0,0,0.,12.0,0.,12.0,0.,12.0,0.,12.0
1980-11-14 00:36:42.060 ,1,0,0.,12.0,0.,12.0,0.,12.0,0.,12.0
1980-11-14 00:36:54.060 ,1,0,0.,12.0,0.,12.0,0.,12.0,0.,12.0
1980-11-14 00:37:06.060 ,1,0,0.,12.0,0.,12.0,0.,12.0,0.,12.0
1980-11-14 00:37:18.060 ,1,0,0.,12.0,0.,12.0,0.,12.0,0.,12.0
1980-11-14 00:37:30.060 ,2,0,0.,12.0,0.,12.0,0.,12.0,0.,12.0
1980-11-14 00:37:42.060 ,2,0,0.,12.0,0.,12.0,0.,12.0,0.,12.0
1980-11-14 00:37:54.060 ,2,0,0.,12.0,0.,12.0,0.,12.0,0.,12.0
1980-11-14 00:38:06.060 ,2,0,0.,12.0,0.,12.0,0.,12.0,0.,12.0
1980-11-14 00:38:18.060 ,3,0,0.,12.0,0.,12.0,0.,12.0,0.,12.0
1980-11-14 00:38:30.060 ,3,0,0.,12.0,0.,12.0,0.,12.0,0.,12.0
1980-11-14 00:38:42.060 ,3,0,0.,12.0,0.,12.0,0.,12.0,0.,12.0
1980-11-14 00:38:54.060 ,3,0,0.,12.0,0.,12.0,0.,12.0,0.,12.0
1980-11-14 00:39:06.060 ,4,0,0.,12.0,0.,12.0,0.,12.0,0.,12.0
1980-11-14 00:39:18.060 ,4,0,0.,12.0,0.,12.0,0.,12.0,0.,12.0
1980-11-14 00:39:30.060 ,4,0,0.,12.0,0.,12.0,0.,12.0,0.,12.0
1980-11-14 00:39:42.060 ,4,0,0.,12.0,0.,12.0,0.,12.0,0.,12.0
1980-11-14 00:39:54.060 ,5,0,0.,12.0,0.,12.0,0.,12.0,0.,12.0
1980-11-14 00:40:06.060 ,5,0,0.,12.0,0.,12.0,0.,12.0,0.,12.0
1980-11-14 00:40:18.060 ,5,0,0.,12.0,0.,12.0,0.,12.0,0.,12.0
1980-11-14 00:40:30.060 ,5,0,0.,12.0,0.,12.0,0.,12.0,0.,12.0
1980-11-14 00:40:42.060 ,6,0,0.,12.0,0.,12.0,0.,12.0,0.,12.0
1980-11-14 00:40:54.060 ,6,0,0.,12.0,0.,12.0,0.,12.0,0.,12.0
1980-11-14 00:41:06.060 ,6,0,0.,12.0,0.,12.0,0.,12.0,0.,12.0
1980-11-14 00:41:18.060 ,6,0,0.,12.0,0.,12.0,0.,12.0,0.,12.0
1980-11-14 00:41:30.060 ,7,0,0.,12.0,0.,12.0,0.,12.0,0.,12.0
1980-11-14 00:41:42.060 ,7,0,0.,12.0,0.,12.0,0.,12.0,0.,12.0
1980-11-14 00:41:54.060 ,7,0,0.,12.0,1.,12.0,0.,12.0,0.,12.0
1980-11-14 00:42:06.060 ,7,0,0.,12.0,0.,12.0,0.,12.0,0.,12.0
1980-11-14 00:42:18.060 ,7,0,0.,12.0,0.,12.0,0.,12.0,0.,12.0
1980-11-14 00:42:30.060 ,7,0,0.,12.0,0.,12.0,0.,12.0,0.,12.0
1980-11-14 00:42:42.060 ,7,0,0.,12.0,0.,12.0,0.,12.0,0.,12.0
1980-11-14 00:42:54.060 ,7,0,0.,12.0,0.,12.0,0.,12.0,0.,12.0
1980-11-14 00:43:06.060 ,6,0,0.,12.0,0.,12.0,0.,12.0,0.,12.0
1980-11-14 00:43:18.060 ,6,0,0.,12.0,0.,12.0,0.,12.0,0.,12.0
1980-11-14 00:43:30.060 ,6,0,0.,12.0,0.,12.0,0.,12.0,0.,12.0
1980-11-14 00:43:42.060 ,6,0,0.,12.0,0.,12.0,0.,12.0,0.,12.0
1980-11-14 00:43:54.060 ,5,0,0.,12.0,0.,12.0,0.,12.0,0.,12.0
1980-11-14 00:44:06.060 ,5,0,0.,12.0,0.,12.0,0.,12.0,0.,12.0
1980-11-14 00:44:18.060 ,5,0,0.,12.0,0.,12.0,0.,12.0,0.,12.0
1980-11-14 00:44:30.060 ,5,0,0.,12.0,0.,12.0,0.,12.0,0.,12.0
1980-11-14 00:44:42.060 ,4,0,0.,12.0,0.,12.0,0.,12.0,0.,12.0
1980-11-14 00:44:54.060 ,4,0,0.,12.0,0.,12.0,0.,12.0,0.,12.0
1980-11-14 00:45:06.060 ,4,0,0.,12.0,0.,12.0,0.,12.0,0.,12.0
1980-11-14 00:45:18.060 ,4,0,0.,12.0,0.,12.0,0.,12.0,0.,12.0
1980-11-14 00:45:30.060 ,3,0,0.,12.0,0.,12.0,0.,12.0,0.,12.0
1980-11-14 00:45:42.060 ,3,0,0.,12.0,0.,12.0,0.,12.0,0.,12.0
1980-11-14 00:45:54.060 ,3,0,0.,12.0,0.,12.0,0.,12.0,0.,12.0
1980-11-14 00:46:06.060 ,3,0,0.,12.0,0.,12.0,0.,12.0,0.,12.0
1980-11-14 00:46:18.060 ,2,0,0.,12.0,0.,12.0,0.,12.0,0.,12.0
1980-11-14 00:46:30.060 ,2,0,0.,12.0,0.,12.0,0.,12.0,0.,12.0
1980-11-14 00:46:42.060 ,2,0,0.,12.0,0.,12.0,0.,12.0,0.,12.0
1980-11-14 00:46:54.060 ,2,0,0.,12.0,0.,12.0,0.,12.0,0.,12.0
1980-11-14 00:47:06.060 ,1,0,0.,12.0,0.,12.0,0.,12.0,0.,12.0
1980-11-14 00:47:18.060 ,1,0,0.,12.0,0.,12.0,0.,12.0,0.,12.0
1980-11-14 00:47:30.060 ,1,0,0.,12.0,0.,12.0,0.,12.0,0.,12.0
1980-11-14 00:47:42.060 ,1,0,0.,12.0,0.,12.0,0.,12.0,0.,12.0
1980-11-14 00:47:54.060 ,0,0,0.,12.0,0.,12.0,0.,12.0,0.,12.0
1980-11-14 00:48:06.060 ,0,0,0.,12.0,0.,12.0,0.,12.0,0.,12.0
1980-11-14 00:48:18.060 ,0,0,0.,12.0,0.,12.0,0.,12.0,0.,12.0
1980-11-14 00:48:30.060 ,0,0,0.,12.0,0.,12.0,0.,12.0,0.,12.0
1980-11-14 00:48:42.060 ,0,0,0.,12.0,0.,12.0,0.,12.0,0.,12.0
1980-11-14 00:48:54.060 ,0,0,0.,12.0,0.,12.0,0.,12.0,0.,12.0
1980-11-14 00:49:06.060 ,0,0,0.,12.0,0.,12.0,0.,12.0,0.,12.0
1980-11-14 00:49:18.060 ,0,0,0.,12.0,0.,12.0,0.,12.0,0.,12.0
1980-11-14 00:49:30.060 ,1,0,0.,12.0,0.,12.0,0.,12.0,0.,12.0
1980-11-14 00:49:42.060 ,1,0,0.,12.0,0.,12.0,0.,12.0,0.,12.0
1980-11-14 00:49:54.060 ,1,0,0.,12.0,0.,12.0,0.,12.0,0.,12.0
1980-11-14 00:50:06.060 ,1,0,0.,12.0,0.,12.0,0.,12.0,0.,12.0
1980-11-14 00:50:18.060 ,2,0,0.,12.0,0.,12.0,0.,12.0,0.,12.0
1980-11-14 00:50:30.060 ,2,0,0.,12.0,0.,12.0,0.,12.0,0.,12.0
1980-11-14 00:50:42.060 ,2,0,0.,12.0,0.,12.0,0.,12.0,0.,12.0
1980-11-14 00:50:54.060 ,2,0,0.,12.0,0.,12.0,0.,12.0,0.,12.0
1980-11-14 00:51:06.060 ,3,0,0.,12.0,0.,12.0,0.,12.0,0.,12.0
1980-11-14 00:51:18.060 ,3,0,0.,12.0,0.,12.0,0.,12.0,0.,12.0
1980-11-14 00:51:30.060 ,3,0,0.,12.0,0.,12.0,0.,12.0,0.,12.0
1980-11-14 00:51:42.060 ,3,0,0.,12.0,0.,12.0,0.,12.0,0.,12.0
1980-11-14 00:51:54.060 ,4,0,0.,12.0,0.,12.0,0.,12.0,0.,12.0
1980-11-14 00:52:06.060 ,4,0,0.,12.0,0.,12.0,0.,12.0,0.,12.0
1980-11-14 00:52:18.060 ,4,0,0.,12.0,0.,12.0,0.,12.0,0.,12.0
1980-11-14 00:52:30.060 ,4,0,0.,12.0,0.,12.0,0.,12.0,0.,12.0
1980-11-14 00:52:42.060 ,5,0,0.,12.0,0.,12.0,0.,12.0,0.,12.0
1980-11-14 00:52:54.060 ,5,0,0.,12.0,0.,12.0,0.,12.0,0.,12.0
1980-11-14 00:53:06.060 ,5,0,0.,12.0,0.,12.0,0.,12.0,0.,12.0
1980-11-14 00:53:18.060 ,5,0,0.,12.0,1.,12.0,0.,12.0,0.,12.0
1980-11-14 00:53:30.060 ,6,0,0.,12.0,0.,12.0,0.,12.0,0.,12.0
1980-11-14 00:53:42.060 ,6,0,0.,12.0,0.,12.0,0.,12.0,0.,12.0
1980-11-14 00:53:54.060 ,6,0,0.,12.0,0.,12.0,0.,12.0,0.,12.0
1980-11-14 00:54:06.060 ,6,0,0.,12.0,0.,12.0,0.,12.0,0.,12.0
1980-11-14 00:54:18.060 ,7,0,0.,12.0,0.,12.0,0.,12.0,0.,12.0
1980-11-14 00:54:30.060 ,7,0,0.,12.0,0.,12.0,0.,12.0,0.,12.0
1980-11-14 00:54:42.060 ,7,0,0.,12.0,0.,12.0,0.,12.0,0.,12.0
1980-11-14 00:54:54.060 ,7,0,0.,12.0,0.,12.0,0.,12.0,0.,12.0
1980-11-14 00:55:06.060 ,7,0,0.,12.0,0.,12.0,0.,12.0,0.,12.0
1980-11-14 00:55:18.060 ,7,0,0.,12.0,0.,12.0,0.,12.0,0.,12.0
1980-11-14 00:55:30.060 ,7,0,0.,12.0,0.,12.0,0.,12.0,0.,12.0
1980-11-14 00:55:42.060 ,7,0,0.,12.0,0.,12.0,0.,12.0,0.,12.0
1980-11-14 00:55:54.060 ,6,0,0.,12.0,0.,12.0,0.,12.0,0.,12.0
1980-11-14 00:56:06.060 ,6,0,0.,12.0,0.,12.0,0.,12.0,0.,12.0
1980-11-14 00:56:18.060 ,6,0,0.,12.0,0.,12.0,0.,12.0,0.,12.0
1980-11-14 00:56:30.060 ,6,0,0.,12.0,0.,12.0,0.,12.0,0.,12.0
1980-11-14 00:56:42.060 ,5,0,0.,12.0,0.,12.0,0.,12.0,0.,12.0
1980-11-14 00:56:54.060 ,5,0,0.,12.0,0.,12.0,0.,12.0,0.,12.0
1980-11-14 00:57:06.060 ,5,0,0.,12.0,0.,12.0,0.,12.0,0.,12.0
1980-11-14 00:57:18.060 ,5,0,0.,12.0,0.,12.0,0.,12.0,0.,12.0
1980-11-14 00:57:30.060 ,4,0,0.,12.0,0.,12.0,0.,12.0,0.,12.0
1980-11-14 00:57:42.060 ,4,0,0.,12.0,0.,12.0,0.,12.0,0.,12.0
1980-11-14 00:57:54.060 ,4,0,0.,12.0,0.,12.0,0.,12.0,0.,12.0
1980-11-14 00:58:06.060 ,4,0,0.,12.0,0.,12.0,0.,12.0,0.,12.0
1980-11-14 00:58:18.060 ,3,0,0.,12.0,0.,12.0,0.,12.0,0.,12.0
1980-11-14 00:58:30.060 ,3,0,0.,12.0,0.,12.0,0.,12.0,0.,12.0
1980-11-14 00:58:42.060 ,3,0,0.,12.0,0.,12.0,0.,12.0,0.,12.0
1980-11-14 00:58:54.060 ,3,0,0.,12.0,0.,12.0,0.,12.0,0.,12.0
1980-11-14 00:59:06.060 ,2,0,0.,12.0,0.,12.0,0.,12.0,0.,12.0
1980-11-14 00:59:18.060 ,2,0,0.,12.0,0.,12.0,0.,12.0,0.,12.0
1980-11-14 00:59:30.060 ,2,0,0.,12.0,0.,12.0,0.,12.0,0.,12.0
1980-11-14 00:59:42.060 ,2,0,0.,12.0,0.,12.0,0.,12.0,0.,12.0
1980-11-14 00:59:54.060 ,1,0,0.,12.0,0.,12.0,0.,12.0,0.,12.0
1980-11-14 01:00:06.060 ,1,0,0.,12.0,0.,12.0,0.,12.0,0.,12.0
1980-11-14 01:00:18.060 ,0,0,0.,12.0,0.,12.0,0.,12.0,0.,12.0
1980-11-14 01:00:30.060 ,0,0,0.,12.0,0.,12.0,0.,12.0,0.,12.0
1980-11-14 01:01:00.060 ,0,0,,0,,0,,0,,0
1980-11-14 01:01:12.060 ,0,0,0.,12.0,0.,12.0,0.,12.0,0.,12.0
1980-11-14 01:01:06.060 ,0,0,0.,12.0,0.,12.0,0.,12.0,0.,12.0
1980-11-14 01:01:18.060 ,0,0,0.,12.0,0.,12.0,0.,12.0,0.,12.0
1980-11-14 01:01:30.060 ,0,0,0.,12.0,0.,12.0,0.,12.0,0.,12.0
1980-11-14 01:01:42.060 ,0,0,0.,12.0,0.,12.0,0.,12.0,0.,12.0
1980-11-14 01:01:54.060 ,0,0,0.,12.0,0.,12.0,0.,12.0,0.,12.0
1980-11-14 01:02:06.060 ,0,0,0.,12.0,0.,12.0,0.,12.0,0.,12.0
1980-11-14 01:02:18.060 ,1,0,0.,12.0,0.,12.0,0.,12.0,0.,12.0
1980-11-14 01:02:30.060 ,1,0,0.,12.0,0.,12.0,0.,12.0,0.,12.0
1980-11-14 01:02:42.060 ,1,0,0.,12.0,0.,12.0,0.,12.0,0.,12.0
1980-11-14 01:02:54.060 ,1,0,0.,12.0,0.,12.0,0.,12.0,0.,12.0
1980-11-14 01:03:06.060 ,2,0,0.,12.0,0.,12.0,0.,12.0,0.,12.0
1980-11-14 01:03:18.060 ,2,0,0.,12.0,0.,12.0,0.,12.0,0.,12.0
1980-11-14 01:03:30.060 ,2,0,0.,12.0,0.,12.0,0.,12.0,0.,12.0
1980-11-14 01:03:42.060 ,2,0,0.,12.0,0.,12.0,0.,12.0,0.,12.0
1980-11-14 01:03:54.060 ,3,0,0.,12.0,0.,12.0,0.,12.0,0.,12.0
1980-11-14 01:04:06.060 ,3,0,0.,12.0,0.,12.0,0.,12.0,0.,12.0
1980-11-14 01:04:18.060 ,3,0,0.,12.0,0.,12.0,0.,12.0,0.,12.0
1980-11-14 01:04:30.060 ,3,0,0.,12.0,0.,12.0,0.,12.0,0.,12.0
1980-11-14 01:04:42.060 ,4,0,0.,12.0,0.,12.0,0.,12.0,0.,12.0
1980-11-14 01:04:54.060 ,4,0,0.,12.0,0.,12.0,0.,12.0,0.,12.0
1980-11-14 01:05:06.060 ,4,0,0.,12.0,0.,12.0,0.,12.0,0.,12.0
1980-11-14 01:05:18.060 ,4,0,0.,12.0,0.,12.0,0.,12.0,0.,12.0
1980-11-14 01:05:30.060 ,5,0,0.,12.0,0.,12.0,0.,12.0,0.,12.0
1980-11-14 01:05:42.060 ,5,0,0.,12.0,0.,12.0,0.,12.0,0.,12.0
1980-11-14 01:05:54.060 ,5,0,0.,12.0,0.,12.0,0.,12.0,0.,12.0
1980-11-14 01:06:06.060 ,5,0,0.,12.0,0.,12.0,0.,12.0,0.,12.0
1980-11-14 01:06:18.060 ,6,0,0.,12.0,0.,12.0,0.,12.0,0.,12.0
1980-11-14 01:06:30.060 ,6,0,0.,12.0,0.,12.0,0.,12.0,0.,12.0
1980-11-14 01:06:42.060 ,6,0,0.,12.0,0.,12.0,0.,12.0,0.,12.0
1980-11-14 01:06:54.060 ,6,0,0.,12.0,0.,12.0,0.,12.0,0.,12.0
1980-11-14 01:07:06.060 ,7,0,0.,12.0,0.,12.0,0.,12.0,0.,12.0
1980-11-14 01:07:18.060 ,7,0,0.,12.0,0.,12.0,0.,12.0,0.,12.0
1980-11-14 01:07:30.060 ,7,0,0.,12.0,0.,12.0,0.,12.0,0.,12.0
1980-11-14 01:07:42.060 ,7,0,0.,12.0,0.,12.0,0.,12.0,0.,12.0
1980-11-14 01:07:54.060 ,7,0,0.,12.0,0.,12.0,0.,12.0,0.,12.0
1980-11-14 01:08:06.060 ,7,0,0.,12.0,0.,12.0,0.,12.0,0.,12.0
1980-11-14 01:08:18.060 ,7,0,0.,12.0,0.,12.0,0.,12.0,0.,12.0
1980-11-14 01:08:30.060 ,7,0,0.,12.0,0.,12.0,0.,12.0,0.,12.0
1980-11-14 01:08:42.060 ,6,0,0.,12.0,0.,12.0,0.,12.0,0.,12.0
1980-11-14 01:08:54.060 ,6,0,0.,12.0,0.,12.0,0.,12.0,0.,12.0
1980-11-14 01:09:06.060 ,6,0,0.,12.0,0.,12.0,0.,12.0,0.,12.0
1980-11-14 01:09:18.060 ,6,0,0.,12.0,0.,12.0,0.,12.0,0.,12.0
1980-11-14 01:09:30.060 ,5,0,0.,12.0,0.,12.0,0.,12.0,0.,12.0
1980-11-14 01:09:42.060 ,5,0,0.,12.0,0.,12.0,0.,12.0,0.,12.0
1980-11-14 01:09:54.060 ,5,0,0.,12.0,0.,12.0,0.,12.0,0.,12.0
1980-11-14 01:10:06.060 ,5,0,0.,12.0,0.,12.0,0.,12.0,0.,12.0
1980-11-14 01:10:18.060 ,4,0,0.,12.0,0.,12.0,0.,12.0,0.,12.0
1980-11-14 01:10:30.060 ,4,0,0.,12.0,0.,12.0,0.,12.0,0.,12.0
1980-11-14 01:10:42.060 ,4,0,0.,12.0,0.,12.0,0.,12.0,0.,12.0
1980-11-14 01:10:54.060 ,4,0,0.,12.0,0.,12.0,0.,12.0,0.,12.0
1980-11-14 01:11:06.060 ,3,0,0.,12.0,0.,12.0,0.,12.0,0.,12.0
1980-11-14 01:11:18.060 ,3,0,0.,12.0,0.,12.0,0.,12.0,0.,12.0
1980-11-14 01:11:30.060 ,3,0,0.,12.0,0.,12.0,0.,12.0,0.,12.0
1980-11-14 01:11:42.060 ,3,0,0.,12.0,0.,12.0,0.,12.0,0.,12.0
1980-11-14 01:11:54.060 ,2,0,0.,12.0,0.,12.0,0.,12.0,0.,12.0
1980-11-14 01:12:06.060 ,2,0,0.,12.0,0.,12.0,0.,12.0,0.,12.0
1980-11-14 01:12:18.060 ,2,0,0.,12.0,0.,12.0,0.,12.0,0.,12.0
1980-11-14 01:12:30.060 ,2,0,0.,12.0,0.,12.0,0.,12.0,0.,12.0
1980-11-14 01:12:42.060 ,1,0,0.,12.0,0.,12.0,0.,12.0,0.,12.0
1980-11-14 01:12:54.060 ,1,0,0.,12.0,0.,12.0,0.,12.0,0.,12.0
1980-11-14 01:13:06.060 ,1,0,0.,12.0,0.,12.0,0.,12.0,0.,12.0
1980-11-14 01:13:18.060 ,1,0,0.,12.0,0.,12.0,0.,12.0,0.,12.0
1980-11-14 01:13:30.060 ,0,0,0.,12.0,0.,12.0,0.,12.0,0.,12.0
1980-11-14 01:13:42.060 ,0,0,0.,12.0,0.,12.0,0.,12.0,0.,12.0
1980-11-14 01:13:54.060 ,0,0,0.,12.0,0.,12.0,0.,12.0,0.,12.0
1980-11-14 01:14:06.060 ,0,0,0.,12.0,0.,12.0,0.,12.0,0.,12.0
1980-11-14 01:14:18.060 ,0,0,0.,12.0,0.,12.0,0.,12.0,0.,12.0
1980-11-14 01:14:30.060 ,0,0,0.,12.0,0.,12.0,0.,12.0,0.,12.0
1980-11-14 01:14:42.060 ,0,0,0.,12.0,0.,12.0,0.,12.0,0.,12.0
1980-11-14 01:14:54.060 ,0,0,0.,12.0,0.,12.0,0.,12.0,0.,12.0
1980-11-14 01:15:06.060 ,1,0,0.,12.0,0.,12.0,0.,12.0,0.,12.0
1980-11-14 01:15:18.060 ,1,0,0.,12.0,0.,12.0,0.,12.0,0.,12.0
1980-11-14 01:15:30.060 ,1,0,0.,12.0,0.,12.0,0.,12.0,0.,12.0
1980-11-14 01:15:42.060 ,1,0,0.,12.0,0.,12.0,0.,12.0,0.,12.0
1980-11-14 01:15:54.060 ,2,0,0.,12.0,0.,12.0,0.,12.0,0.,12.0
1980-11-14 01:16:06.060 ,2,0,0.,12.0,0.,12.0,0.,12.0,0.,12.0
1980-11-14 01:16:18.060 ,2,0,0.,12.0,0.,12.0,0.,12.0,0.,12.0
1980-11-14 01:16:30.060 ,2,0,0.,12.0,0.,12.0,0.,12.0,0.,12.0
1980-11-14 01:16:42.060 ,3,0,0.,12.0,0.,12.0,0.,12.0,0.,12.0
1980-11-14 01:16:54.060 ,3,0,0.,12.0,0.,12.0,0.,12.0,0.,12.0
1980-11-14 01:17:06.060 ,3,0,0.,12.0,0.,12.0,0.,12.0,0.,12.0
1980-11-14 01:17:18.060 ,3,0,0.,12.0,0.,12.0,0.,12.0,0.,12.0